GTRVO GCLP-GCXO

Flight info

Callsign GTRVO
Flight time 0h 27m
Altitude 8500
Route VFR
Aircraft C208/L-SDFGR/C

Departure

Time 2026-04-23 18:31
Airport Gran Canaria Airport (GCLP)

Arrival

Time 2026-04-23 18:58
Airport Tenerife Norte-Ciudad de La Laguna Airport (GCXO)
Time Latitude Longitude Altitude Speed Heading
2026-04-23 18:10 27.92663 -15.39348 69 ft 0 kts 46°
2026-04-23 18:26 27.92660 -15.39309 95 ft 12 kts 108°
2026-04-23 18:26 27.92588 -15.39308 96 ft 16 kts 200°
2026-04-23 18:26 27.92457 -15.39299 97 ft 23 kts 135°
2026-04-23 18:27 27.92355 -15.39226 96 ft 21 kts 201°
2026-04-23 18:27 27.92194 -15.39297 97 ft 24 kts 199°
2026-04-23 18:27 27.92057 -15.39305 91 ft 16 kts 190°
2026-04-23 18:27 27.92018 -15.39303 90 ft 0 kts 55°
2026-04-23 18:29 27.92006 -15.39297 91 ft 7 kts 177°
2026-04-23 18:29 27.91929 -15.39250 85 ft 21 kts 84°
2026-04-23 18:30 27.92088 -15.39144 83 ft 43 kts 21°
2026-04-23 18:30 27.92505 -15.38959 125 ft 79 kts 22°
2026-04-23 18:30 27.92987 -15.38747 428 ft 71 kts 18°
2026-04-23 18:30 27.93479 -15.38526 583 ft 81 kts 19°
2026-04-23 18:31 27.93992 -15.38277 839 ft 82 kts 17°
2026-04-23 18:31 27.94606 -15.38307 973 ft 98 kts 337°
2026-04-23 18:31 27.95211 -15.38605 1299 ft 91 kts 339°
2026-04-23 18:31 27.95795 -15.38885 1553 ft 92 kts 340°
2026-04-23 18:32 27.96413 -15.39123 1826 ft 95 kts 345°
2026-04-23 18:32 27.96834 -15.39255 2028 ft 96 kts 345°
2026-04-23 18:32 27.97824 -15.39614 2107 ft 123 kts 340°
2026-04-23 18:32 27.98372 -15.39867 2107 ft 135 kts 339°
2026-04-23 18:33 27.99289 -15.40306 2054 ft 149 kts 338°
2026-04-23 18:33 28.00261 -15.40793 2000 ft 154 kts 335°
2026-04-23 18:33 28.01208 -15.41318 1973 ft 149 kts 333°
2026-04-23 18:33 28.02087 -15.41924 1919 ft 147 kts 330°
2026-04-23 18:34 28.02943 -15.42557 1876 ft 146 kts 328°
2026-04-23 18:34 28.03788 -15.43157 1912 ft 144 kts 330°
2026-04-23 18:34 28.04663 -15.43717 2008 ft 142 kts 332°
2026-04-23 18:34 28.05503 -15.44244 2256 ft 136 kts 332°
2026-04-23 18:35 28.06294 -15.44750 2619 ft 127 kts 332°
2026-04-23 18:35 28.07042 -15.45232 2972 ft 121 kts 332°
2026-04-23 18:35 28.07770 -15.45684 3352 ft 118 kts 332°
2026-04-23 18:35 28.08472 -15.46126 3705 ft 113 kts 332°
2026-04-23 18:36 28.09142 -15.46535 4060 ft 109 kts 331°
2026-04-23 18:36 28.09804 -15.46921 4414 ft 105 kts 332°
2026-04-23 18:36 28.10306 -15.47461 4749 ft 101 kts 304°
2026-04-23 18:36 28.10733 -15.48094 5033 ft 102 kts 306°
2026-04-23 18:37 28.11159 -15.48769 5291 ft 107 kts 306°
2026-04-23 18:37 28.11585 -15.49457 5596 ft 107 kts 305°
2026-04-23 18:37 28.12006 -15.50156 5900 ft 107 kts 305°
2026-04-23 18:37 28.12445 -15.50842 6193 ft 107 kts 317°
2026-04-23 18:38 28.13093 -15.51243 6483 ft 105 kts 319°
2026-04-23 18:38 28.13560 -15.51866 6763 ft 104 kts 312°
2026-04-23 18:38 28.14034 -15.52498 7029 ft 105 kts 308°
2026-04-23 18:38 28.14493 -15.53153 7293 ft 107 kts 307°
2026-04-23 18:39 28.14951 -15.53821 7560 ft 107 kts 306°
2026-04-23 18:39 28.15399 -15.54489 7819 ft 105 kts 305°
2026-04-23 18:39 28.15830 -15.55133 8079 ft 103 kts 305°
2026-04-23 18:39 28.16259 -15.55777 8341 ft 101 kts 304°
2026-04-23 18:40 28.16693 -15.56433 8470 ft 112 kts 304°
2026-04-23 18:40 28.17201 -15.57192 8488 ft 129 kts 304°
2026-04-23 18:40 28.17722 -15.58085 8489 ft 142 kts 291°
2026-04-23 18:40 28.18184 -15.59115 8490 ft 151 kts 302°
2026-04-23 18:41 28.18790 -15.60142 8484 ft 158 kts 303°
2026-04-23 18:41 28.19420 -15.61160 8480 ft 161 kts 304°
2026-04-23 18:41 28.20078 -15.62200 8482 ft 163 kts 304°
2026-04-23 18:41 28.20695 -15.63285 8483 ft 164 kts 290°
2026-04-23 18:42 28.20926 -15.64545 8483 ft 164 kts 285°
2026-04-23 18:42 28.21356 -15.65738 8482 ft 164 kts 296°
2026-04-23 18:42 28.21888 -15.66886 8487 ft 165 kts 298°
2026-04-23 18:42 28.22464 -15.68013 8485 ft 165 kts 299°
2026-04-23 18:43 28.23052 -15.69137 8486 ft 165 kts 300°
2026-04-23 18:43 28.23645 -15.70257 8483 ft 166 kts 300°
2026-04-23 18:43 28.24242 -15.71376 8482 ft 166 kts 300°
2026-04-23 18:43 28.24836 -15.72495 8492 ft 166 kts 300°
2026-04-23 18:44 28.25433 -15.73618 8487 ft 166 kts 300°
2026-04-23 18:44 28.26029 -15.74739 8486 ft 166 kts 300°
2026-04-23 18:44 28.26625 -15.75860 8486 ft 166 kts 300°
2026-04-23 18:44 28.27220 -15.76980 8488 ft 166 kts 300°
2026-04-23 18:45 28.27816 -15.78101 8492 ft 166 kts 300°
2026-04-23 18:45 28.28404 -15.79207 8489 ft 166 kts 300°
2026-04-23 18:45 28.29000 -15.80329 8487 ft 166 kts 300°
2026-04-23 18:45 28.29595 -15.81449 8487 ft 166 kts 300°
2026-04-23 18:46 28.30190 -15.82570 8490 ft 166 kts 300°
2026-04-23 18:46 28.30784 -15.83687 8519 ft 164 kts 300°
2026-04-23 18:46 28.31369 -15.84794 8539 ft 164 kts 299°
2026-04-23 18:46 28.31896 -15.85932 8589 ft 162 kts 295°
2026-04-23 18:47 28.32500 -15.87015 8597 ft 164 kts 304°
2026-04-23 18:47 28.33120 -15.88099 8594 ft 165 kts 300°
2026-04-23 18:47 28.33721 -15.89218 8571 ft 166 kts 300°
2026-04-23 18:47 28.34321 -15.90346 8553 ft 167 kts 300°
2026-04-23 18:48 28.34919 -15.91475 8557 ft 167 kts 300°
2026-04-23 18:48 28.35409 -15.92400 8558 ft 166 kts 300°
2026-04-23 18:48 28.35781 -15.93101 8556 ft 166 kts 300°
2026-04-23 18:48 28.36329 -15.94133 8557 ft 166 kts 300°
2026-04-23 18:49 28.36923 -15.95253 8540 ft 166 kts 300°
2026-04-23 18:49 28.37517 -15.96372 8551 ft 166 kts 300°
2026-04-23 18:49 28.38111 -15.97495 8547 ft 166 kts 300°
2026-04-23 18:49 28.38697 -15.98598 8554 ft 166 kts 300°
2026-04-23 18:50 28.39100 -15.99358 8552 ft 166 kts 300°
2026-04-23 18:50 28.39886 -16.00840 8560 ft 166 kts 300°
2026-04-23 18:50 28.40481 -16.01962 8545 ft 166 kts 300°
2026-04-23 18:50 28.41075 -16.03085 8550 ft 166 kts 300°
2026-04-23 18:51 28.41672 -16.04209 8565 ft 166 kts 300°
2026-04-23 18:51 28.42269 -16.05336 8566 ft 167 kts 300°
2026-04-23 18:51 28.42864 -16.06461 8506 ft 161 kts 300°
2026-04-23 18:51 28.43416 -16.07491 8054 ft 148 kts 300°
2026-04-23 18:52 28.43948 -16.08494 7425 ft 149 kts 300°
2026-04-23 18:52 28.44484 -16.09512 6752 ft 152 kts 301°
2026-04-23 18:52 28.45033 -16.10550 6019 ft 154 kts 301°
2026-04-23 18:52 28.45583 -16.11589 5285 ft 153 kts 302°
2026-04-23 18:53 28.46129 -16.12623 4617 ft 150 kts 302°
2026-04-23 18:53 28.46640 -16.13642 3986 ft 148 kts 293°
2026-04-23 18:53 28.46716 -16.14808 3368 ft 150 kts 269°
2026-04-23 18:53 28.46637 -16.15991 2785 ft 148 kts 270°
2026-04-23 18:54 28.46617 -16.17067 2746 ft 135 kts 277°
2026-04-23 18:54 28.46691 -16.18157 2760 ft 142 kts 280°
2026-04-23 18:54 28.46811 -16.19296 2765 ft 148 kts 281°
2026-04-23 18:54 28.46932 -16.20468 2766 ft 150 kts 280°
2026-04-23 18:55 28.47060 -16.21632 2767 ft 151 kts 281°
2026-04-23 18:55 28.47188 -16.22836 2766 ft 152 kts 281°
2026-04-23 18:55 28.47342 -16.24011 2766 ft 152 kts 284°
2026-04-23 18:55 28.47582 -16.25184 2756 ft 152 kts 287°
2026-04-23 18:56 28.47735 -16.25972 2756 ft 149 kts 287°
2026-04-23 18:56 28.47998 -16.27489 2755 ft 147 kts 284°
2026-04-23 18:56 28.48227 -16.28628 2757 ft 149 kts 285°
2026-04-23 18:56 28.48317 -16.29767 2757 ft 142 kts 265°
2026-04-23 18:57 28.48091 -16.30854 2635 ft 139 kts 257°
2026-04-23 18:57 28.47727 -16.31834 2425 ft 128 kts 255°
2026-04-23 18:57 28.47786 -16.32720 2240 ft 109 kts 296°
2026-04-23 18:57 28.48037 -16.33469 2128 ft 93 kts 294°
2026-04-23 18:58 28.48252 -16.34116 2064 ft 85 kts 292°
2026-04-23 18:58 28.48450 -16.34709 2079 ft 73 kts 289°
2026-04-23 18:58 28.48612 -16.35165 2085 ft 48 kts 301°
2026-04-23 18:58 28.48713 -16.35319 2079 ft 12 kts 330°
2026-04-23 18:59 28.48758 -16.35289 2077 ft 10 kts 107°
2026-04-23 18:59 28.48743 -16.35233 2078 ft 8 kts 77°
2026-04-23 18:59 28.48792 -16.35203 2073 ft 5 kts 22°
2026-04-23 18:59 28.48812 -16.35222 2072 ft 4 kts 287°
2026-04-23 19:00 28.48823 -16.35251 2072 ft 7 kts 289°
2026-04-23 19:00 28.48836 -16.35305 2071 ft 5 kts 256°
2026-04-23 19:00 28.48825 -16.35325 2071 ft 0 kts 236°
2026-04-23 19:00 28.48824 -16.35326 2071 ft 0 kts 237°